This is the latest recevied weather packets stored in our database for station/object DO1TOB-60. If no packets are shown the sender has not sent any weather packets the latest 1 day(s).
| Time | Temp. | Humidity | Pressure | Rain* | Wind** | Luminosity | Snow |
|---|---|---|---|---|---|---|---|
| 1777997077 | 13.33° C | 93% | 1008 hPa | 0 mm | 2.68 m/s, 329° | - | - |
| 1777997017 | 13.33° C | 93% | 1008 hPa | 0 mm | 2.68 m/s, 327° | - | - |
| 1777996959 | 13.33° C | 93% | 1008.1 hPa | 0 mm | 1.79 m/s, 334° | - | - |
| 1777996887 | 13.33° C | 93% | 1008.1 hPa | 0 mm | 1.79 m/s, 351° | - | - |
| 1777996827 | 13.33° C | 93% | 1008.1 hPa | 0 mm | 2.68 m/s, 319° | - | - |
| 1777996768 | 13.33° C | 93% | 1008.1 hPa | 0 mm | 3.13 m/s, 336° | - | - |
| 1777996707 | 13.33° C | 93% | 1008.1 hPa | 0 mm | 2.68 m/s, 333° | - | - |
| 1777996647 | 13.33° C | 93% | 1008.1 hPa | 0 mm | 3.13 m/s, 330° | - | - |
| 1777996587 | 13.33° C | 93% | 1008.1 hPa | 0 mm | 2.24 m/s, 325° | - | - |
| 1777996539 | 13.33° C | 93% | 1008.1 hPa | 0 mm | 2.24 m/s, 329° | - | - |
| 1777996457 | 13.33° C | 93% | 1008.1 hPa | 0 mm | 3.13 m/s, 337° | - | - |
| 1777996397 | 13.33° C | 93% | 1008.1 hPa | 0 mm | 1.34 m/s, 324° | - | - |
| 1777996337 | 13.33° C | 93% | 1008.1 hPa | 0 mm | 2.24 m/s, 341° | - | - |
| 1777996278 | 13.33° C | 93% | 1008.1 hPa | 0 mm | 2.24 m/s, 324° | - | - |
| 1777996217 | 13.33° C | 93% | 1008.1 hPa | 0 mm | 1.79 m/s, 332° | - | - |
| 1777996157 | 13.33° C | 93% | 1008.1 hPa | 0 mm | 3.13 m/s, 336° | - | - |
| 1777996088 | 13.33° C | 93% | 1008.1 hPa | 0 mm | 1.34 m/s, 323° | - | - |
| 1777996027 | 13.33° C | 93% | 1008.1 hPa | 0 mm | 2.68 m/s, 310° | - | - |
| 1777995967 | 13.33° C | 93% | 1008.2 hPa | 0 mm | 1.79 m/s, 323° | - | - |
| 1777995907 | 13.33° C | 93% | 1008.1 hPa | 0 mm | 0.89 m/s, 342° | - | - |
| 1777995848 | 13.33° C | 93% | 1008.2 hPa | 0 mm | 2.68 m/s, 325° | - | - |
| 1777995788 | 13.33° C | 93% | 1008.1 hPa | 0 mm | 0.89 m/s, 335° | - | - |
| 1777995727 | 13.33° C | 93% | 1008.2 hPa | 0 mm | 0.89 m/s, 335° | - | - |
| 1777995658 | 13.33° C | 93% | 1008.2 hPa | 0 mm | 2.68 m/s, 340° | - | - |
| 1777995597 | 13.33° C | 93% | 1008.2 hPa | 0 mm | 2.68 m/s, 336° | - | - |
* Rain latest hour (hover to see other rain measurements)
** Current wind speed in m/s (hover to see current wind gust speed)